Weather History for KLRD - April, 2013

Change the Weather History Date:

Monday, April 22, 2013

  Actual Average Record
Temperature  
Mean Temperature 80 °F 78 °F  
Max Temperature 92 °F 89 °F 107 °F (1999)
Min Temperature 67 °F 66 °F 47 °F (1907)
Degree Days  
Heating Degree Days 0 0  
Month to date heating degree days 0 12  
Since 1 July heating degree days 513 925  
Cooling Degree Days 15 13  
Month to date cooling degree days 255 234  
Year to date cooling degree days 624 492  
Growing Degree Days 28 (Base 50)    
Moisture  
Dew Point 61 °F    
Average Humidity 62    
Maximum Humidity 84    
Minimum Humidity 33    
Precipitation  
Precipitation 0.00 in 0.05 in 1.69 in (1962)
Month to date precipitation 0.01 0.93  
Year to date precipitation 0.76 3.89  
Sea Level Pressure  
Sea Level Pressure 29.98 in    
Wind  
Wind Speed 12 mph (SE)    
Max Wind Speed 20 mph    
Max Gust Speed 23 mph    
Visibility 10 miles    
Events      
T = Trace of Precipitation, MM = Missing Value Source: NWS Daily Summary

Daily Weather History Graph

Daily Weather History Graph

Search for Another Location

Airport or City:

Trip Planner

Search our weather history database for the weather conditions in past years. The results will help you decide how hot, cold, wet, or windy it might be!

Date:

Astronomy

Apr. 22, 2013 Rise Set
Actual Time 7:06 AM CDT 8:06 PM CDT
Civil Twilight 6:42 AM CDT 8:30 PM CDT
Nautical Twilight 6:13 AM CDT 8:59 PM CDT
Astronomical Twilight 5:43 AM CDT 9:29 PM CDT
Moon 5:12 PM CDT (4/22) 4:44 AM CDT (4/22)
Length of Visible Light 13h 48m
Length of Day
13h 00m
Waxing Gibbous, 88% of the Moon is Illuminated
Apr 22
Waxing Gibbous
Apr 25
Full
May 2
Last Quarter
May 9
New
May 17
First Quarter

Hourly Weather History & Observations

Time (CDT) Temp. Heat Index Dew Point Humidity Pressure Visibility Wind Dir Wind Speed Gust Speed Precip Events Conditions
12:56 AM 68.9 °F - 59.9 °F 73% 30.04 in 10.0 mi SE 16.1 mph - N/A   Clear
1:56 AM 68.0 °F - 59.9 °F 75% 30.04 in 10.0 mi SE 13.8 mph - N/A   Mostly Cloudy
2:56 AM 68.9 °F - 59.9 °F 73% 30.02 in 10.0 mi SSE 15.0 mph - N/A   Overcast
3:56 AM 68.9 °F - 61.0 °F 76% 30.01 in 10.0 mi SE 12.7 mph - N/A   Mostly Cloudy
4:56 AM 68.9 °F - 61.0 °F 76% 30.01 in 10.0 mi SE 10.4 mph - N/A   Overcast
5:06 AM 69.8 °F - 60.8 °F 73% 30.05 in 10.0 mi SE 10.4 mph - N/A   Mostly Cloudy
5:35 AM 69.8 °F - 62.6 °F 78% 30.05 in 10.0 mi SE 10.4 mph - N/A   Mostly Cloudy
5:56 AM 68.9 °F - 61.9 °F 78% 30.02 in 10.0 mi ESE 10.4 mph - N/A   Mostly Cloudy
6:56 AM 66.9 °F - 61.9 °F 84% 30.03 in 10.0 mi ESE 6.9 mph - N/A   Mostly Cloudy
7:34 AM 66.2 °F - 62.6 °F 88% 30.07 in 10.0 mi SE 6.9 mph - N/A   Mostly Cloudy
7:56 AM 68.0 °F - 61.9 °F 81% 30.04 in 10.0 mi ESE 5.8 mph - N/A   Mostly Cloudy
8:03 AM 68.0 °F - 62.6 °F 83% 30.07 in 10.0 mi ESE 5.8 mph - N/A   Scattered Clouds
8:45 AM 69.8 °F - 62.6 °F 78% 30.08 in 10.0 mi SSE 8.1 mph - N/A   Mostly Cloudy
8:56 AM 70.9 °F - 63.0 °F 76% 30.06 in 10.0 mi South 8.1 mph - N/A   Mostly Cloudy
9:19 AM 73.4 °F - 62.6 °F 69% 30.09 in 10.0 mi South 11.5 mph - N/A   Overcast
9:56 AM 73.9 °F - 63.0 °F 68% 30.06 in 10.0 mi South 11.5 mph - N/A   Overcast
10:26 AM 75.2 °F - 62.6 °F 65% 30.09 in 10.0 mi South 11.5 mph - N/A   Overcast
10:56 AM 75.9 °F - 63.0 °F 64% 30.06 in 10.0 mi South 9.2 mph - N/A   Overcast
11:56 AM 79.9 °F - 61.9 °F 54% 30.05 in 10.0 mi SSE 12.7 mph 16.1 mph N/A   Mostly Cloudy
12:56 PM 82.9 °F 83.2 °F 59.9 °F 46% 30.01 in 10.0 mi SSE 9.2 mph - N/A   Unknown
1:56 PM 84.9 °F 84.8 °F 59.9 °F 43% 29.97 in 10.0 mi South 10.4 mph 16.1 mph N/A   Scattered Clouds
2:56 PM 88.0 °F 87.6 °F 59.9 °F 39% 29.93 in 10.0 mi SE 10.4 mph - N/A   Clear
3:56 PM 88.9 °F 88.0 °F 59.0 °F 36% 29.88 in 10.0 mi South 9.2 mph - N/A   Clear
4:56 PM 90.0 °F 89.1 °F 59.0 °F 35% 29.85 in 10.0 mi SE 15.0 mph 18.4 mph N/A   Clear
5:56 PM 90.9 °F 89.7 °F 57.9 °F 33% 29.83 in 10.0 mi SE 11.5 mph - N/A   Clear
6:56 PM 90.0 °F 88.8 °F 57.9 °F 34% 29.83 in 10.0 mi SE 12.7 mph - N/A   Clear
7:56 PM 88.0 °F 86.9 °F 57.9 °F 36% 29.83 in 10.0 mi SSE 16.1 mph - N/A   Clear
8:56 PM 86.0 °F 85.4 °F 59.0 °F 40% 29.85 in 10.0 mi SSE 16.1 mph 21.9 mph N/A   Clear
9:56 PM 82.9 °F 83.3 °F 61.0 °F 47% 29.86 in 10.0 mi SSE 13.8 mph - N/A   Clear
10:56 PM 81.0 °F 81.9 °F 61.9 °F 52% 29.86 in 10.0 mi SSE 17.3 mph - N/A   Clear
11:56 PM 77.0 °F - 63.9 °F 64% 29.87 in 10.0 mi SE 17.3 mph - N/A   Clear